アトラス彗星

P/2025 C1 ( ATLAS )

English version
Home page
Updated on August 30, 2025

---------------------------------------------------------------------

・ プロフィール

発見日 2025年2月2日
発見光度 18.4等
発見者 Asteroid Terrestrial-Impact Last Alert System (ATLAS) search program

・ 写真集

・ 軌道要素

Epoch 2025 May 5.0 TT = JDT 2460800.5
T 2025 Feb. 6.56503 TT                                  Pike
q   2.7460627            (2000.0)            P               Q
n   0.11469886     Peri.  186.80073     -0.96188219     +0.27267968
a   4.1953029      Node     9.10348     -0.24433331     -0.82295847
e   0.3454435      Incl.    7.51718     -0.12281643     -0.49838252
P   8.59
From 365 observations 2025 Feb. 2-June 12, mean residual 0".7.

・ 星図

・ 光度変化

        m1 =  15.0 + 5 logΔ + 10.0 log r           [   ,-10]  (              〜2025年 1月27日)
        m1 = -24   + 5 logΔ + 75   log r(t + 300)  [-10,190]  (2025年 1月27日〜2025年 8月15日)
        m1 =  15.0 + 5 logΔ + 10.0 log r           [190,   ]  (2025年 8月15日〜              )

        ※ 灰色の曲線は、m1 = 15.0 + 5 logΔ + 10.0 log r の光度曲線です。

---------------------------------------------------------------------

軌道要素はM.P.E.C. 2025-M120に掲載されたものです。
星図はステラナビゲータ Ver.11 (アストロアーツ) で作成したものです。
光度グラフはComet for Windowsで作成したものです。

---------------------------------------------------------------------

Copyright(C) Seiichi Yoshida (comet@aerith.net). All rights reserved.